Theta_e
332 331 331 330 329 330 331 331 331 334 332 331 332 333 332 330 331 333 333 332 336 336 336 337 337 336 337 336 336 336 336 336 335
328 328 327 328 328 328 328 329 328 329 329 331 332 332 330 327 328 329 332 333 335 336 335 335 336 336 335 335 334 335 335 334 334
324 324 324 325 325 325 326 326 326 326 327 327 329 329 326 325 327 329 331 333 334 334 333 334 333 334 334 334 334 333 333 333 333
322 322 323 323 323 322 321 322 322 321 322 322 324 324 324 323 324 324 326 331 332 332 332 332 333 333 333 333 332 333 332 332 332
320 321 321 320 319 319 319 316 316 317 317 318 320 322 316 319 321 324 326 328 330 331 331 331 331 332 332 332 332 331 331 331 331
318 318 317 317 317 316 315 315 315 318 319 319 319 311 312 315 317 321 323 326 327 327 328 329 329 330 330 330 330 331 331 330 329
315 317 321 320 319 317 318 320 319 313 313 313 313 312 311 313 313 316 320 322 324 324 325 326 326 327 327 328 328 328 327 328 327
314 316 315 316 314 316 313 314 314 311 312 311 312 311 310 311 311 311 317 319 323 323 323 323 324 325 326 326 326 326 326 327 327
313 313 314 313 312 313 313 312 312 311 310 309 309 309 310 310 310 310 314 320 320 324 325 324 323 324 324 324 324 324 324 325 325
314 314 312 310 310 311 312 311 311 310 309 310 309 309 308 308 310 311 311 323 320 322 325 326 326 325 325 325 324 324 323 324 324
315 313 311 310 310 311 310 310 310 310 309 309 310 310 310 309 309 310 312 319 322 321 324 326 326 326 326 325 324 323 322 322 323
315 313 310 311 310 309 309 309 309 309 310 310 311 312 312 312 311 310 312 314 323 322 322 325 326 326 327 325 324 323 322 322 322
316 314 312 312 310 309 309 310 310 309 310 311 312 312 312 311 311 310 311 313 315 321 323 324 326 326 326 326 325 323 323 322 322
316 315 314 311 310 309 309 309 310 309 310 310 311 312 312 312 310 311 311 313 315 317 318 322 325 325 326 326 325 324 323 322 322
315 314 312 311 310 310 309 309 309 309 309 308 309 312 313 313 311 311 311 312 314 315 315 318 321 322 324 325 326 324 324 323 323
314 313 311 310 309 310 309 309 309 310 310 309 311 311 311 311 310 311 311 311 312 313 313 314 317 318 321 324 324 325 325 324 323
313 312 311 310 309 309 309 309 309 310 310 309 309 308 310 310 309 309 309 310 311 311 311 313 315 316 316 321 322 326 325 325 324
313 312 312 311 310 310 310 309 309 309 310 309 309 308 308 308 309 308 308 309 309 311 311 311 313 314 314 316 320 323 323 324 324
313 313 312 311 311 310 311 309 309 308 308 309 308 309 309 308 308 311 309 308 308 310 311 310 311 313 314 314 317 319 323 323 322
314 313 313 312 311 311 311 310 308 309 309 309 309 308 308 307 306 305 311 311 310 310 310 311 311 312 313 313 314 318 321 322 321
Wind_Speed
12 12 11 11 12 11 11 12 12 14 12 11 12 14 15 10 10 10 10 11 14 15 15 15 15 15 15 16 18 18 18 17 18
10 10 10 10 9 10 10 10 10 10 11 12 11 13 14 9 8 6 5 11 12 14 14 15 16 16 16 16 16 17 18 17 16
8 8 8 8 8 8 8 8 8 8 10 10 10 11 11 8 8 6 5 10 11 13 13 14 14 14 15 15 16 16 16 16 15
6 7 7 7 7 7 6 6 6 7 8 8 8 10 9 6 5 6 4 9 9 10 11 11 13 13 13 14 14 14 15 14 14
5 7 6 5 5 4 5 5 6 5 5 6 7 7 6 5 3 3 4 6 7 8 9 10 10 11 11 12 12 13 13 13 13
5 5 4 3 3 3 3 4 4 6 6 6 6 4 2 2 1 2 7 4 5 5 5 7 7 8 9 9 9 11 12 11 11
2 4 5 8 4 4 5 6 5 3 2 2 2 1 1 1 0 1 6 0 4 4 3 4 5 6 7 7 8 8 8 8 8
1 1 2 3 4 2 3 2 2 2 1 1 1 1 1 1 1 3 5 4 3 4 4 3 3 4 5 5 5 5 5 6 6
1 2 2 2 1 2 2 2 2 2 2 2 2 3 2 2 2 3 6 6 5 6 6 5 4 4 3 3 3 3 3 4 4
2 2 2 2 1 2 2 2 2 3 3 3 3 4 4 4 3 2 7 9 7 7 7 7 6 6 5 4 3 3 2 2 2
3 2 3 2 2 2 2 2 2 3 3 4 4 4 4 4 4 4 4 8 8 8 8 8 8 7 6 5 4 3 2 2 1
5 3 3 2 2 4 3 3 2 3 3 5 4 3 4 4 6 4 4 4 7 8 9 9 9 8 7 6 5 4 4 3 2
5 4 4 2 2 3 3 2 2 3 3 4 4 4 4 5 5 5 5 4 4 5 8 9 9 8 8 7 6 6 5 4 3
6 5 4 3 3 3 2 2 2 3 3 4 4 4 4 4 4 6 6 6 5 4 6 7 8 8 9 8 8 7 6 6 5
6 5 5 4 3 3 3 4 2 3 4 5 6 6 5 4 5 5 5 5 6 5 6 5 5 6 9 10 9 8 8 7 7
8 5 5 5 5 5 4 3 4 3 2 3 4 4 5 6 5 4 5 6 6 6 6 5 4 4 7 10 10 10 10 9 8
8 7 6 7 5 6 5 5 2 2 2 2 2 3 2 3 4 4 5 7 5 6 7 7 7 5 5 6 8 8 10 10 9
10 9 8 7 6 6 6 6 7 4 2 5 3 2 2 3 1 5 5 6 5 5 7 8 8 7 6 7 8 9 9 11 10
10 10 9 9 7 8 7 6 7 5 6 2 4 4 2 2 3 2 3 5 7 8 6 8 9 9 7 9 9 9 10 11 12
10 10 10 10 7 9 9 8 9 7 5 5 3 3 3 4 5 4 1 2 6 8 9 8 9 10 9 8 10 15 14 13 14
Wind_Direction
77 82 81 73 92 88 75 62 57 61 82 76 75 71 57 52 68 73 74 75 84 84 88 88 92 89 83 85 84 85 84 84 81
76 77 79 81 81 89 87 80 72 73 75 76 74 62 56 57 56 54 40 90 91 92 95 89 86 88 90 89 88 86 88 86 87
90 90 88 82 81 78 77 79 79 77 80 74 74 61 53 49 51 52 62 81 86 87 93 90 94 89 90 88 90 93 89 91 90
94 97 92 86 77 80 90 81 81 77 74 84 86 75 64 68 47 34 17 86 82 81 83 88 88 90 93 93 93 89 92 89 90
81 54 79 73 73 76 76 89 90 86 80 74 88 84 72 75 54 32 25 75 81 91 97 94 91 94 95 96 97 99 96 92 91
43 50 56 73 70 70 82 92 93 79 56 52 82 77 69 100 51 14 352 98 100 96 93 89 96 102 102 101 101 99 96 97 97
40 16 4 8 18 39 40 47 54 63 65 81 71 76 104 169 133 299 329 184 132 125 117 114 115 112 109 109 106 101 94 98 92
39 333 351 351 9 8 1 4 20 17 51 115 150 192 211 214 214 244 280 256 207 169 164 156 145 138 130 128 116 109 103 97 87
230 285 316 310 348 332 323 318 328 300 262 248 231 219 220 217 222 236 257 247 232 216 200 196 196 188 170 158 139 129 128 116 104
224 261 245 264 280 282 275 289 289 276 257 248 233 213 216 219 224 231 245 245 230 228 217 214 218 218 216 210 201 190 191 159 117
222 242 237 252 244 254 260 264 268 270 268 257 235 233 219 217 225 223 226 238 234 229 226 220 223 223 224 222 223 216 216 183 130
221 235 241 258 235 242 231 231 245 263 266 264 254 239 229 228 222 218 220 219 237 234 233 227 226 229 231 226 226 221 222 210 182
218 230 239 232 220 239 233 236 258 267 266 271 251 244 235 229 223 212 215 213 222 222 231 230 228 231 234 233 226 224 224 212 190
222 229 229 222 223 224 231 223 249 284 272 272 266 248 240 232 220 211 208 209 210 216 220 231 236 239 238 236 231 224 223 211 194
220 226 227 217 225 228 217 237 213 265 282 280 270 252 238 227 227 216 208 206 210 212 222 209 213 241 241 242 235 222 216 209 197
219 223 217 210 222 228 214 216 242 253 248 281 260 243 238 229 225 219 216 208 207 208 213 213 209 211 237 251 237 226 216 208 204
223 223 219 211 216 217 210 204 197 244 224 278 276 300 182 209 225 221 222 219 206 215 213 216 212 205 213 231 255 245 225 214 213
220 224 223 218 214 222 210 207 211 235 195 224 280 276 322 320 176 222 228 230 225 230 224 222 221 211 209 220 230 239 237 228 224
224 225 221 222 216 223 221 210 217 208 231 201 221 234 293 327 318 188 224 228 237 235 230 229 225 222 216 214 225 223 224 228 231
234 234 231 229 223 232 228 217 214 214 233 213 186 197 220 240 249 285 292 240 226 233 231 225 225 221 220 215 219 220 222 218 226